DELTA 1 DEB, 7075

Orbit data source: Space-Track

DELTA 1 DEB, 7075 is space debris in SSO originally from a launch on Tue, 06 Nov 1973 UTC launched from the Air Force Western Test Range (AFWTR). Debris objects in space refer to the collection of defunct objects orbiting the Earth. Examples of debris include non-operational satellites, rocket bodies, and fragments generated from explosions, collisions, or faulty payload assembly.

Loading next visibility...
Identifier
7075, 1973-086BT
Orbit
SSO
Country
Flag of USUS
Related business
Manufacturer
Unknown
Mission
Spacecraft
Bus & Motor
Unknown
Mass
Unknown
Launch date (UTC)
1973-11-06 (53 years ago)
Launch vehicle
Unknown
Launch site
Air Force Western Test Range (AFWTR)
Object type
Payload
Rocket body
Debris
Shape & HBR
Unknown shape, 0.1 m
Radar Cross Section
Medium (>0.1 m² and <1 m²)

Expand to show TLE details & history
Last TLE update: 10 hours ago

TLE from 10 hours ago
0 DELTA 1 DEB
1 07075U 73086BT  26237.39303159  .00001859  00000-0  59805-2 0  9998
2 07075 101.5962 147.7704 0159376 169.8278 311.6257 12.99936795475019
Epoch: 2026-08-25T09:25Z
TLE epoch observation values (Epoch: 2026-08-25T09:25:57.929Z)
Latitude
58.0639°
Longitude
-128.26276°
Altitude
1,192.151 km
Speed
7.301 km/s
True Right ascension
23h 07m 33s
True Declination
57° 55' 05"
Sunlit
Object was in daylight at epoch
Visualization orbit readout
Latitude
Unknown
Longitude
Unknown
Altitude
Unknown
Speed
Unknown
Apparent Right ascension
Unknown
Apparent Declination
Unknown
Sunlit
N/A
Visualization observer readout
Local Sidereal Time
10:32:04
Azimuth
Unknown
Elevation
Unknown
Doppler factor
Unknown
Orbital elements
Apogee altitude
1,381.54 km
Perigee altitude
1,138.079 km
Semi-major axis
7,637.946 km
Eccentricity
0.01594
Inclination
101.5962°
RAAN
147.7704°
Arg. of periapsis
169.8278°
True anomaly
310.24237°
Mean anomaly
311.6257°
Eccentric anomaly
310.93586°
Mean motion
3.25146 °/min
Orbital period
110.72 mins
BSTAR
0.0059805
Loading maneuver chart data...
Computing Atmospheric mass density...
Loading historical data...
Loading historical data...
Loading historical data...
Loading historical data...
Loading historical data...
Loading historical data...
Loading historical data...

Documentation

Showing up to 5 results
|